Terug naar catalogus

CZ-6A DEB

ActiefPO
NORAD 61302·DEBRIS·🇨🇳 China

Gelanceerd Aug 6, 2024 vanaf Taiyuan Satellite Launch Center

Loading…

Volgende Passages (komende 24 uur)

TLE

VersSource: Space-Track

Epoch: Sep 14, 2026, 00:07 UTC

1 61302U 24140TP  26257.00523319  .00005662  00000-0  11554-2 0  9995
2 61302  88.8912 249.7868 0056274 330.6663  29.1393 14.59828431108466

Volg CZ-6A DEB in realtime met AllMySat

Download on the App Store